Marshfield, WI

5:51 PM CST on November 18, 2019 (GMT -0600)
Marshfield Municipal

Weather History for KMFI - September, 2019

Change the Weather History Date:

Sunday, September 15, 2019

  Actual Average Record
Temperature  
Mean Temperature 67 °F -  
Max Temperature 78 °F 68 °F 91 °F (1939)
Min Temperature 59 °F 46 °F 28 °F (2007)
Cooling Degree Days 2    
Growing Degree Days 17 (Base 50)    
Moisture  
Dew Point 62 °F    
Average Humidity 91    
Maximum Humidity 100    
Minimum Humidity 69    
Precipitation  
Precipitation 0.00 in - - ()
Sea Level Pressure  
Sea Level Pressure 30.02 in    
Wind  
Wind Speed 3 mph (East)    
Max Wind Speed 7 mph    
Max Gust Speed -    
Visibility 6 miles    
Events Fog , Rain    
Averages and records for this station are not official NWS values.
T = Trace of Precipitation, MM = Missing Value Source: NWS Daily Summary

Daily Weather History Graph

Daily Weather History Graph

Search for Another Location

Airport or City:

Astronomy

Sep. 15, 2019 Rise Set
Actual Time 6:39 AM CDT 7:11 PM CDT
Civil Twilight 6:10 AM CDT 7:41 PM CDT
Nautical Twilight 5:35 AM CDT 8:15 PM CDT
Astronomical Twilight 4:59 AM CDT 8:51 PM CDT
Moon 8:17 PM CDT (9/15) 7:50 AM CDT (9/15)
Length of Visible Light 13h 31m
Length of Day
12h 32m
Full, 98% of the Moon is Illuminated
Sep 15
Full
Sep 21
Last Quarter
Sep 28
New
Oct 5
First Quarter
Oct 13
Full

Hourly Weather History & Observations

Time (CDT) Temp. Dew Point Humidity Pressure Visibility Wind Dir Wind Speed Gust Speed Precip Events Conditions
12:54 AM 60.1 °F 57.9 °F 93% 30.02 in 10.0 mi ENE 6.9 mph - N/A   Mostly Cloudy
1:54 AM 59.0 °F 57.9 °F 96% 30.01 in 10.0 mi ESE 4.6 mph - N/A   Mostly Cloudy
2:54 AM 60.1 °F 57.9 °F 93% 29.99 in 10.0 mi ESE 3.5 mph - N/A   Overcast
3:54 AM 60.1 °F 57.9 °F 93% 29.99 in 10.0 mi East 4.6 mph - N/A   Overcast
4:54 AM 61.0 °F 59.0 °F 93% 29.98 in 10.0 mi East 3.5 mph - N/A   Overcast
5:54 AM 62.1 °F 59.0 °F 90% 30.00 in 10.0 mi Calm Calm - N/A   Overcast
6:26 AM 61.0 °F 59.0 °F 93% 29.99 in 10.0 mi East 5.8 mph - N/A   Overcast
6:54 AM 62.1 °F 60.1 °F 93% 29.99 in 10.0 mi ESE 4.6 mph - N/A   Overcast
7:54 AM 62.1 °F 61.0 °F 96% 30.00 in 3.0 mi ESE 3.5 mph - 0.00 in Rain Light Rain
8:40 AM 63.0 °F 62.1 °F 97% 30.00 in 10.0 mi Calm Calm - 0.00 in   Overcast
8:54 AM 64.0 °F 62.1 °F 93% 30.00 in 10.0 mi ESE 3.5 mph - 0.00 in   Overcast
9:54 AM 64.9 °F 62.1 °F 90% 30.00 in 8.0 mi East 4.6 mph - N/A   Overcast
10:06 AM 64.9 °F 63.0 °F 93% 30.00 in 8.0 mi East 4.6 mph - N/A   Overcast
10:54 AM 64.9 °F 63.0 °F 93% 30.01 in 9.0 mi ESE 4.6 mph - N/A   Overcast
11:54 AM 68.0 °F 64.9 °F 90% 30.01 in 10.0 mi Calm Calm - N/A   Overcast
12:54 PM 69.1 °F 64.9 °F 87% 30.02 in 10.0 mi WSW 3.5 mph - N/A   Overcast
1:21 PM 70.0 °F 64.9 °F 84% 30.02 in 10.0 mi NW 3.5 mph - N/A   Overcast
1:54 PM 70.0 °F 64.9 °F 84% 30.01 in 10.0 mi Calm Calm - N/A   Overcast
2:38 PM 73.0 °F 66.0 °F 79% 30.01 in 10.0 mi NNW 3.5 mph - N/A   Overcast
2:54 PM 73.0 °F 66.0 °F 79% 30.00 in 10.0 mi Calm Calm - N/A   Mostly Cloudy
3:54 PM 73.9 °F 64.0 °F 71% 29.99 in 10.0 mi NW 5.8 mph - N/A   Scattered Clouds
4:54 PM 75.0 °F 64.0 °F 69% 29.98 in 10.0 mi North 5.8 mph - N/A   Clear
5:54 PM 75.0 °F 64.0 °F 69% 29.99 in 10.0 mi Calm Calm - N/A   Clear
6:54 PM 71.1 °F 64.0 °F 78% 29.99 in 10.0 mi Calm Calm - N/A   Clear
7:54 PM 66.0 °F 64.0 °F 93% 30.01 in 10.0 mi Calm Calm - N/A   Clear
8:54 PM 64.0 °F 62.1 °F 93% 30.03 in 4.0 mi Calm Calm - N/A   Clear
9:09 PM 63.0 °F 62.1 °F 97% 30.04 in 1.5 mi Calm Calm - N/A   Clear
9:12 PM 63.0 °F 62.1 °F 97% 30.04 in 0.8 mi Calm Calm - N/A   Clear
9:29 PM 63.0 °F 62.1 °F 97% 30.04 in 1.5 mi Calm Calm - N/A   Clear
9:36 PM 63.0 °F 61.0 °F 93% 30.04 in 0.8 mi Calm Calm - N/A   Clear
9:46 PM 63.0 °F 61.0 °F 93% 30.04 in 1.2 mi Calm Calm - N/A   Clear
9:54 PM 62.1 °F 62.1 °F 100% 30.04 in 1.0 mi Calm Calm - N/A   Clear
10:03 PM 62.1 °F 61.0 °F 96% 30.05 in 0.5 mi Calm Calm - N/A Fog Fog
10:14 PM 63.0 °F 62.1 °F 97% 30.05 in 1.2 mi Calm Calm - N/A   Clear
10:17 PM 63.0 °F 62.1 °F 97% 30.06 in 0.8 mi Calm Calm - N/A   Clear
10:28 PM 60.1 °F 59.0 °F 96% 30.06 in 0.2 mi Calm Calm - N/A Fog Fog
10:43 PM 62.1 °F 61.0 °F 96% 30.06 in 2.0 mi ESE 3.5 mph - N/A   Partly Cloudy
10:50 PM 62.6 °F 60.8 °F 94% 30.06 in 3.0 mi ESE 4.6 mph - N/A   Partly Cloudy
10:54 PM 61.0 °F 59.0 °F 93% 30.06 in 3.0 mi East 3.5 mph - N/A   Partly Cloudy
11:09 PM 61.0 °F 60.1 °F 97% 30.06 in 4.0 mi ESE 3.5 mph - N/A   Partly Cloudy
11:13 PM 61.0 °F 60.1 °F 97% 30.06 in 1.0 mi SE 3.5 mph - N/A   Mist
11:21 PM 61.0 °F 60.1 °F 97% 30.06 in 0.2 mi Calm Calm - N/A Fog Fog
11:38 PM 60.1 °F 59.0 °F 96% 30.06 in 0.5 mi East 3.5 mph - N/A Fog Fog
11:54 PM 60.1 °F 59.0 °F 96% 30.06 in 0.2 mi ENE 3.5 mph - N/A Fog Fog